Погода в Кандалакше

Погода в Кандалакше : погода сейчас, прогноз погоды и архив. Всё, что Вы хотите узнать о погоде в Кандалакше!

Хотите узнать прогноз погоды в Кандалакше? Тогда Вам сюда: Погода в Кандалакше

Поиск расширенной информации на нашем сайте:

Полезная информация: Сварочные технологии сварочное оборудование.

Другие новости

Новости СМИ2

Главная страница сайта

Новости сайта

03.07.2017

Напоминаем, что на нашем специализированном сайте Метеоцентр.Азия вы можете получить высокодетализированные автоматические прогнозы погоды по пунктам России, СНГ и мира в авиационном формате (включающие направление и скорость ветра, видимость, явления погоды, количество и форму облачности, нижнюю и верхнюю границу облачности).

Рекомендуем: Мы предлагаем Вам cкачать программу исправления ошибок.

Погода в Кандалакше - сегодня

Время (UTC), дата Ветер
(°,м/с) 
Видим.   Явления Облачность Т
(°С)
Тd
(°С)
f(%) Тe
(°С)
Pmin
(гПа)
dP
(гПа)
Po
(мм)
O2
(г/м3)
Тmin Tmax R s Состояние
почвы
12 16.01.18 170 (Ю) 4-9{10}  10 км  {ливн. осадки}  10/10 300 м кучево-дожд. 
[Cb cap]
-6 -7.6 88 -9  1013.4  -0.9  758  313           
15 16.01.18 170 (Ю) 4-9{11}  10 км  слаб. ливневой снег  10/10 300 м кучево-дожд. 
[Cb cap]
-6.8 -8.3 89 -10  1012.4  -1  757  314      0.0     
18 16.01.18 160 (Ю) 4-9{10}  10 км  слаб. ливневой снег  10/10 300 м кучево-дожд. 
[Cb cap]
-7.9 -9.1 91 -12  1011.8  -0.6  756  315    -6  0.2     
21 16.01.18 160 (Ю) 4-9{10}  10 км  позёмок{ливн. осадки}  10/10 300 м кучево-дожд. 
[Cb cap]
-8.6 -10.1 89 -12  1012.6  0.9  757  316           
00 17.01.18 170 (Ю) 4-8  10 км  {ливн. осадки}  4/4 300 м 
[Sc]
-10.1 -11.6 89 -14  1013.4  0.7  758  318           
03 17.01.18 170 (Ю) 4-7  10 км    ясно 
-10.4 -11.5 92 -14  1013.5  0.1  758  318  -10.4    0.2     
06 17.01.18 190 (Ю) 3-6  10 км    6/6 300 м 
[St]
-12.6 -13.7 91 -16  1014.8  1.3  759  322  -12.7    0.0  54  равномерный
сухой снег
100% 
09 17.01.18 130 (ЮВ) 1-2  10 км  осадки на расстоянии  10/10 300 м кучево-дожд. 
[Cb cap]
-13.2 -14.2 92 -13  1015.9  759  323           
12 17.01.18 190 (Ю) 1-2  10 км  слаб. ливневой снег  10/10 300 м кучево-дожд. 
[Cb cap]
-14 -15 92 -14  1015.5  -0.4  759  324           
15 17.01.18 020 (С) 1-2  4000 м  слаб. ливневой снег  10/10 200 м кучево-дожд. 
[Cb cap]
-12.6 -13.5 93 -13  1014.9  -0.5  759  322      0.3     
18 17.01.18 350 (С) 1-1  4000 м  слаб. ливневой снег  10/10 100 м кучево-дожд. 
[Cb cap]
-10.9 -11.7 94 -11  1014.2  -0.8  758  319    -10.9  0.7     
21 17.01.18 тихо ()   10 км  в посл. час ливневой снег  10/10 300 м кучево-дожд. 
[Cb cap]
-9.1 -10.2 92 -9  1014.6  0.5  758  317           
00 18.01.18 тихо ()   4000 м  слаб. ливневой снег  10/10 200 м кучево-дожд. 
[Cb cap]
-9 -9.7 95 -9  1014.7  0.1  759  317           
03 18.01.18 010 (С) 1-2  2000 м  ливневой снег  10/10 100 м кучево-дожд. 
[Cb cap]
-8.5 -8.9 97 -8  1013.6  -1.1  758  316  -12.6       
06 18.01.18 100 (В) 1-2  2000 м  ливневой снег  10/10 100 м кучево-дожд. 
[Cb cap]
-6.2 -7 94 -6  1013.1  -0.5  757  313  -10.9    63  равномерный
сухой снег
100% 
09 18.01.18 140 (ЮВ) 2-5  10 км  слаб. ливневой снег  10/10 300 м кучево-дожд. 
[Cb cap]
-5.2 -5.8 96 -7  1013.3  0.2  758  312           
12 18.01.18 120 (ЮВ) 1-4  10 км  в посл. час ливневой снег  10/8 300 м кучево-дожд., средняя 
[Cb cap|Ac As]
-4.7 -5.4 95 -4  1012.8  -0.4  757  311           
15 18.01.18 100 (В) 4-8  10 км  слаб. ливневой снег  10/8 300 м кучево-дожд., средняя 
[Cb cap|Ac As]
-5.3 -6.6 91 -9  1011.8  -1  756  312         
18 18.01.18 090 (В) 3-7{10}  4000 м  слаб. ливневой снег  10/10 300 м кучево-дожд. 
[Cb cap]
-6.8 -8.2 90 -9  1011  -0.8  756  313    -4.5     
21 18.01.18 060 (СВ) 2-5  4000 м  слаб. ливневой снег  10/10 200 м кучево-дожд. 
[Cb cap]
-8 -9.5 89 -10  1009.8  -1.2  755  314           
00 19.01.18 330 (СЗ) 1-2  2000 м  ливневой снег  10/10 100 м кучево-дожд. 
[Cb cap]
-8.8 -10 91 -9  1007.9  -1.9  753  315           
03 19.01.18 030 (СВ) 2-3  4000 м  слаб. ливневой снег  10/10 100 м кучево-дожд. 
[Cb cap]
-8.7 -9.6 93 -10  1007  -0.9  753  314  -8.9       
06 19.01.18 150 (ЮВ) 2-5  4000 м  слаб. ливневой снег  10/10 100 м кучево-дожд. 
[Cb cap]
-8.3 -9 95 -10  1007.9  0.9  753  314  -8.9    63  равномерный
сухой снег
100% 
09 19.01.18 170 (Ю) 2-4  20000 м  в посл. час ливневой снег  10/4 300 м кучево-дожд., средняя, верхняя 
[Cb cap|Ac As|Cs]
-10.3 -11.5 91 -12  1009.7  1.8  755  317           
12 19.01.18 170 (Ю) 1-3  10 км  в посл. час снег{ливн. осадки}  10/0 средняя, верхняя 
[Ac As|Cs]
-12 -12.8 94 -12  1011.4  1.6  756  320           
Время (UTC), дата Ветер
(°,м/с) 
Видим.   Явления Облачность Т
(°С)
Тd
(°С)
f(%) Тe
(°С)
Pmin
(гПа)
dP
(гПа)
Po
(мм)
O2
(г/м3)
Тmin Tmax R s Состояние
почвы

Для получения пояснительной информации подведите курсор к названию столбца.

ПОГОДА в Кандалакше - архив

Всё, что Вы хотите узнать о погоде в Кандалакше - удобно и подробно!

Выберите нужную дату (начиная с 1 января 2015* года) и нажмите кнопку "Найти".
Будут отображены архивные сводки погоды по пункту Кандалакша, начиная с указанной даты.


Отображать данные в формате CSV (для использования в таблицах Excel)


Внимание! Наш архив погоды предназначен исключительно для личного некоммерческого использования в познавательных целях. Если Вам необходимы официальные справки о состоянии погоды (для производственных, юридических, коммерческих и т.п. целей), обращайтесь в органы Росгидромета.

*Примечание: данная дата относится к архиву по метеостанциям СССР (Россия, СНГ, Балтия).
Архив по метеостанциям Зарубежной Европы и Азии (кроме Китая) хранится 10 дней, по другим регионам земного шара (Китай, Африка, Америка, Австралия, Океания) - 1 день.

Кандалакша - район местоположения метеостанции


Название, широта, долгота, высота метеостанции:
Кандалакша 67.2°ш. 32.3°д. 25 м над ур. моря [Российская Федерация]

Дополнительная информация

В oтличие oт бoльшинства пoгoдных сайтoв мы публикуем пoдрoбную метеoинфoрмацию в детальнoм прoфессиoнальнoм фoрмате.

Характеристики температуры и влажнoсти вoздуха измеряются на высoте 2 м в тени вдали oт зданий и деревьев.
Скoрoсть ветра измеряется на высoте 10 м (на урoвне рoста челoвека скoрoсть ветра ниже в 1.5-2 раза). Если метеoстанция нахoдится в гoрoде или в лесу, тo скoрoсть ветра занижена на 2-4 м/с пo сравнению с oткрытым местoм. Скoрoсть ветра над акватoриями крупных рек и oзёр, а также на вершинах хoлмoв на 2-5 м/с выше, чем в oбычных услoвиях.
Атмoсфернoе давление в разных тoчках местнoсти мoжет значительнo oтличаться oт давления на метеoстанции, в зависимoсти oт услoвий рельефа (при пoдъёме на 10 м давление пoнижается примернo на 1 мм рт.ст.).